Content
SEND FEEDBACK

Daily
Averages
Monthly
Summary
Philippines

BOOT, PHILIPPINES


Home > Asia > Philippines
Elevation: 36 feet     Latitude: 14 04N     Longitude: 121 03E

WEATHER
 
SELECT A DAY
Number of Records: 172,573;   Date Range: 7/1/96 - 8/12/14
 
SHARE

PRINT THIS DATA

[ ← Previous Day ]
WEATHER ALMANAC - APRIL 5, 2013
[ Next Day → ]
[ °C ]   °F
Weather ElementAverageHighLow
Temperature85.6 °F92 °F (11:00 am)78.8 °F (6:00 am)
Dewpoint74.6 °F78.8 °F (10:00 pm)69.8 °F (10:00 am)
Humidity69 %89 % (6:00 am)41 % (11:00 am)
Barometer29.74 in29.82 in (8:00 am)29.65 in (4:00 pm)
Wind Speed7.4 mph16.1 mph (5:00 pm)
Weather ElementAverage
Visibility6.1 mi
Wind DirectionSSE (172.3 °)

Weather ElementTotal
Precipitation---
Cooling Degree Days20.4 (Base 65)
Growing Degree Days35.4 (Base 50)
Averaged from 31 records on April 5, 2013
WEATHER CONDITIONS BREAKOUT
WIND DIRECTION BREAKOUT
WEATHER BY HOUR - APRIL 5, 2013
[ °C ]   °F
Local TimeTemperatureDewpointHumidityBarometerVisibilityWind DirectionWind SpeedGust SpeedPrecipitationEventsConditions
1:00 AM82.4 °F75.2 °F79 %29.77 in6.2 miESE (120°)5.8 mphPartly Cloudy
2:00 AM82.0 °F75.0 °F73 %29.76 in6.0 miSE (130°)4.5 mphScattered Clouds
2:00 AM82.4 °F75.2 °F79 %29.74 in6.2 miSE (130°)4.6 mphPartly Cloudy
3:00 AM82.4 °F75.2 °F79 %29.74 in6.2 miSE (130°)1.2 mphPartly Cloudy
4:00 AM80.6 °F75.2 °F84 %29.74 in6.2 miEast (100°)4.6 mphPartly Cloudy
5:00 AM81.0 °F75.0 °F78 %29.76 in6.0 miESE (110°)2.2 mphScattered Clouds
5:00 AM80.6 °F75.2 °F84 %29.74 in6.2 miESE (110°)3.5 mphScattered Clouds
6:00 AM78.8 °F75.2 °F89 %29.77 in6.2 miEast (90°)3.5 mphScattered Clouds
7:00 AM80.6 °F75.2 °F84 %29.80 in5.6 miENE (60°)2.3 mphPartly Cloudy
8:00 AM85.0 °F73.0 °F60 %29.82 in6.0 miEast (100°)4.5 mphHaze
8:00 AM86.0 °F73.4 °F66 %29.80 in6.2 miEast (100°)5.8 mphPartly Cloudy
9:00 AM87.8 °F71.6 °F58 %29.80 in6.2 miESE (110°)6.9 mphPartly Cloudy
10:00 AM89.6 °F69.8 °F52 %29.80 in6.2 miESE (110°)6.9 mphPartly Cloudy
11:00 AM92.0 °F71.0 °F41 %29.78 in6.0 miESE (120°)6.7 mphScattered Clouds
11:00 AM91.4 °F71.6 °F52 %29.77 in6.2 miESE (120°)6.9 mphPartly Cloudy
12:00 PM91.4 °F73.4 °F55 %29.74 in6.2 miESE (120°)10.4 mphPartly Cloudy
1:00 PM91.4 °F73.4 °F55 %29.74 in6.2 miESE (120°)10.4 mphPartly Cloudy
2:00 PM90.0 °F76.0 °F54 %29.69 in6.0 miSW (230°)4.5 mphScattered Clouds
2:00 PM89.6 °F69.8 °F52 %29.68 in6.2 miSW (230°)5.8 mphPartly Cloudy
3:00 PM89.6 °F75.2 °F62 %29.68 in6.2 miSW (230°)5.8 mphScattered Clouds
4:00 PM89.6 °F75.2 °F62 %29.65 in6.2 miWest (260°)15.0 mphPartly Cloudy
5:00 PM88.0 °F74.0 °F54 %29.67 in6.0 miWest (260°)15.7 mphPartly Cloudy
5:00 PM87.8 °F75.2 °F66 %29.65 in6.2 miWest (260°)16.1 mphPartly Cloudy
6:00 PM86.0 °F75.2 °F70 %29.68 in6.2 miWest (260°)16.1 mphPartly Cloudy
7:00 PM84.2 °F75.2 °F74 %29.71 in6.2 miWSW (250°)12.7 mphPartly Cloudy
8:00 PM84.0 °F76.0 °F71 %29.73 in6.0 miWSW (250°)11.2 mphScattered Clouds
8:00 PM84.2 °F77.0 °F79 %29.71 in6.2 miWSW (250°)10.4 mphPartly Cloudy
9:00 PM84.2 °F77.0 °F79 %29.74 in6.2 miSW (230°)8.1 mphPartly Cloudy
10:00 PM84.2 °F78.8 °F84 %29.77 in6.2 miWSW (250°)8.1 mphScattered Clouds
11:00 PM83.0 °F77.0 °F79 %29.79 in6.0 miWSW (250°)4.5 mphPartly Cloudy
11:00 PM84.2 °F78.8 °F84 %29.77 inWSW (250°)5.8 mphScattered Clouds
Hourly data recorded from RPLL, located miles away from Boot, Philippines







STORIES FROM OUR PARTNERS